When you browse on this site, cookies collect data to enhance your experience and personalize the content and advertising you see.
Visit our Privacy Policy to learn more. By continuing to use the site, you agree to this use of cookies and data.
  • In Hungary
  • List of Countries
  • For 7 days
  • Water Temperature
  • Satellite Maps
  • Weather Map
  • News
  • Weather Widgets
  • user-avatar
    Login

    Hourly Weather Shahtarsk

    Today, 24 February, Sunday

    Time Temperature Precipitation Wind Pressure Humidity
    00:00 -13°C° 0 mm 2 mps 751 mmHg 93%
    01:00 -13°C° 0 mm 2 mps 751 mmHg 93%
    02:00 -13°C° 0 mm 2 mps 751 mmHg 94%
    03:00 -13°C° 0 mm 2 mps 751 mmHg 94%
    04:00 -14°C° 0 mm 2 mps 751 mmHg 94%
    05:00 -14°C° 0 mm 2 mps 751 mmHg 94%
    06:00 -14°C° 0 mm 2 mps 751 mmHg 94%
    07:00 -13°C° 0 mm 2 mps 751 mmHg 93%
    08:00 -13°C° 0 mm 2 mps 752 mmHg 92%
    09:00 -13°C° 0 mm 2 mps 752 mmHg 91%
    10:00 -10°C° 0 mm 2 mps 752 mmHg 86%
    11:00 -9°C° 0 mm 2 mps 752 mmHg 81%
    12:00 -8°C° 0 mm 2 mps 752 mmHg 77%
    13:00 -7°C° 0 mm 2 mps 752 mmHg 73%
    14:00 -7°C° 0 mm 2 mps 752 mmHg 70%
    15:00 -6°C° 0 mm 2 mps 751 mmHg 66%
    16:00 -7°C° 0 mm 2 mps 751 mmHg 66%
    17:00 -7°C° 0 mm 1 mps 751 mmHg 66%
    18:00 -8°C° 0 mm 1 mps 751 mmHg 65%
    19:00 -8°C° 0 mm 1 mps 751 mmHg 65%
    20:00 -8°C° 0 mm 1 mps 751 mmHg 65%
    21:00 -8°C° 0 mm 1 mps 751 mmHg 65%
    22:00 -8°C° 0 mm 2 mps 751 mmHg 67%
    23:00 -8°C° 0 mm 2 mps 750 mmHg 69%

    Tomorrow, 25 February, Monday

    Time Temperature Precipitation Wind Pressure Humidity
    00:00 -8°C° 0 mm 2 mps 750 mmHg 71%
    01:00 -7°C° 0 mm 2 mps 750 mmHg 74%
    02:00 -8°C° 0 mm 3 mps 750 mmHg 76%
    03:00 -8°C° 0 mm 3 mps 749 mmHg 78%
    04:00 -8°C° 0 mm 3 mps 749 mmHg 80%
    05:00 -8°C° 0 mm 3 mps 748 mmHg 82%
    06:00 -8°C° 0 mm 3 mps 748 mmHg 83%
    07:00 -9°C° 0 mm 4 mps 747 mmHg 84%
    08:00 -8°C° 0 mm 4 mps 747 mmHg 84%
    09:00 -7°C° 0 mm 4 mps 747 mmHg 84%
    10:00 -6°C° 0 mm 5 mps 747 mmHg 84%
    11:00 -4°C° 0 mm 5 mps 746 mmHg 83%
    12:00 -2°C° 0 mm 5 mps 746 mmHg 83%
    13:00 -2°C° 0.1 mm 5 mps 745 mmHg 81%
    14:00 -3°C° 0.1 mm 6 mps 744 mmHg 80%
    15:00 -2°C° 0.1 mm 6 mps 743 mmHg 78%
    16:00 -3°C° 0.3 mm 6 mps 743 mmHg 80%
    17:00 -3°C° 0.3 mm 6 mps 742 mmHg 82%
    18:00 -3°C° 0.3 mm 6 mps 741 mmHg 84%
    19:00 -4°C° 0.1 mm 5 mps 741 mmHg 85%
    20:00 -4°C° 0.1 mm 5 mps 740 mmHg 87%
    21:00 -4°C° 0.1 mm 5 mps 740 mmHg 88%
    22:00 -4°C° 0 mm 5 mps 739 mmHg 89%
    23:00 -3°C° 0 mm 4 mps 739 mmHg 90%

    Day after tomorrow, 26 February, Tuesday

    Time Temperature Precipitation Wind Pressure Humidity
    00:00 -3°C° 0 mm 4 mps 738 mmHg 92%
    01:00 -4°C° 0 mm 4 mps 738 mmHg 92%
    02:00 -4°C° 0 mm 4 mps 737 mmHg 93%
    03:00 -5°C° 0 mm 4 mps 737 mmHg 93%
    04:00 -4°C° 0.1 mm 4 mps 736 mmHg 93%
    05:00 -5°C° 0.1 mm 5 mps 736 mmHg 92%
    06:00 -4°C° 0.1 mm 5 mps 736 mmHg 92%
    07:00 -4°C° 0.1 mm 5 mps 735 mmHg 91%
    08:00 -2°C° 0.1 mm 5 mps 735 mmHg 91%
    09:00 -2°C° 0.1 mm 5 mps 735 mmHg 90%
    10:00 -2°C° 0 mm 5 mps 735 mmHg 91%
    11:00 -2°C° 0 mm 5 mps 735 mmHg 92%
    12:00 -2°C° 0 mm 5 mps 734 mmHg 93%
    13:00 -2°C° 0.1 mm 5 mps 734 mmHg 93%
    14:00 -1°C° 0.1 mm 5 mps 733 mmHg 93%
    15:00 -1°C° 0.1 mm 5 mps 733 mmHg 92%
    16:00 -2°C° 0.1 mm 5 mps 733 mmHg 92%
    17:00 -2°C° 0.1 mm 4 mps 732 mmHg 91%
    18:00 -2°C° 0.1 mm 4 mps 732 mmHg 91%
    19:00 -2°C° 0.1 mm 4 mps 732 mmHg 92%
    20:00 -1°C° 0.1 mm 3 mps 732 mmHg 93%
    21:00 -2°C° 0.1 mm 3 mps 732 mmHg 94%
    22:00 -2°C° 0 mm 3 mps 732 mmHg 95%
    23:00 -2°C° 0 mm 3 mps 732 mmHg 95%

    27 February, Wednesday

    Time Temperature Precipitation Wind Pressure Humidity
    00:00 -2°C° 0 mm 3 mps 733 mmHg 95%
    01:00 -4°C° 0 mm 3 mps 733 mmHg 95%
    02:00 -4°C° 0 mm 3 mps 733 mmHg 95%
    03:00 -5°C° 0 mm 3 mps 733 mmHg 95%
    04:00 -5°C° 0 mm 3 mps 733 mmHg 95%
    05:00 -5°C° 0 mm 3 mps 733 mmHg 95%
    06:00 -5°C° 0 mm 3 mps 734 mmHg 95%
    07:00 -5°C° 0 mm 4 mps 734 mmHg 94%
    08:00 -5°C° 0 mm 4 mps 735 mmHg 93%
    09:00 -4°C° 0 mm 4 mps 735 mmHg 92%
    10:00 -4°C° 0 mm 4 mps 735 mmHg 92%
    11:00 -3°C° 0 mm 4 mps 736 mmHg 92%
    12:00 -3°C° 0 mm 4 mps 736 mmHg 92%
    13:00 -3°C° 0 mm 4 mps 736 mmHg 91%
    14:00 -2°C° 0 mm 4 mps 736 mmHg 89%
    15:00 -2°C° 0 mm 4 mps 736 mmHg 88%
    16:00 -2°C° 0.1 mm 4 mps 737 mmHg 89%
    17:00 -1°C° 0.1 mm 3 mps 737 mmHg 89%
    18:00 -2°C° 0.1 mm 3 mps 737 mmHg 90%
    19:00 -2°C° 0.1 mm 3 mps 738 mmHg 91%
    20:00 -2°C° 0.1 mm 3 mps 738 mmHg 92%
    21:00 -4°C° 0.1 mm 3 mps 738 mmHg 93%
    22:00 -4°C° 0 mm 3 mps 738 mmHg 93%
    23:00 -5°C° 0 mm 3 mps 738 mmHg 93%

    28 February, Thursday

    Time Temperature Precipitation Wind Pressure Humidity
    00:00 -5°C° 0 mm 3 mps 739 mmHg 93%
    01:00 -6°C° 0 mm 3 mps 739 mmHg 92%
    02:00 -6°C° 0 mm 2 mps 738 mmHg 91%
    03:00 -7°C° 0 mm 2 mps 738 mmHg 90%
    04:00 -7°C° 0 mm 2 mps 738 mmHg 89%
    05:00 -6°C° 0 mm 2 mps 738 mmHg 88%
    06:00 -6°C° 0 mm 2 mps 737 mmHg 87%
    07:00 -7°C° 0 mm 3 mps 737 mmHg 86%
    08:00 -6°C° 0 mm 3 mps 737 mmHg 86%
    09:00 -5°C° 0 mm 4 mps 737 mmHg 85%
    10:00 -5°C° 0 mm 5 mps 737 mmHg 83%
    11:00 -4°C° 0 mm 5 mps 736 mmHg 81%
    12:00 -4°C° 0 mm 6 mps 736 mmHg 79%
    13:00 -2°C° 0 mm 5 mps 735 mmHg 77%
    14:00 -2°C° 0 mm 5 mps 735 mmHg 76%
    15:00 -1°C° 0 mm 5 mps 734 mmHg 75%
    16:00 -2°C° 0.1 mm 5 mps 733 mmHg 77%
    17:00 -2°C° 0.1 mm 5 mps 733 mmHg 80%
    18:00 -4°C° 0.1 mm 5 mps 733 mmHg 83%
    19:00 -4°C° 0.2 mm 5 mps 732 mmHg 83%
    20:00 -4°C° 0.2 mm 5 mps 731 mmHg 83%
    21:00 -4°C° 0.2 mm 6 mps 731 mmHg 84%
    22:00 -3°C° 0.4 mm 6 mps 730 mmHg 86%
    23:00 -3°C° 0.4 mm 6 mps 729 mmHg 89%

    1 March, Friday

    Time Temperature Precipitation Wind Pressure Humidity
    00:00 -3°C° 0.4 mm 7 mps 728 mmHg 92%
    01:00 -3°C° 0.9 mm 7 mps 727 mmHg 92%
    02:00 -2°C° 0.9 mm 7 mps 726 mmHg 93%
    03:00 -2°C° 0.9 mm 7 mps 725 mmHg 94%
    04:00 -2°C° 0.2 mm 7 mps 724 mmHg 94%
    05:00 -2°C° 0.2 mm 7 mps 724 mmHg 95%
    06:00 -2°C° 0.2 mm 6 mps 723 mmHg 95%
    07:00 -2°C° 0.3 mm 6 mps 723 mmHg 95%
    08:00 -2°C° 0.3 mm 7 mps 723 mmHg 94%
    09:00 -2°C° 0.3 mm 7 mps 723 mmHg 93%
    10:00 -2°C° 0.1 mm 7 mps 723 mmHg 92%
    11:00 -2°C° 0.1 mm 7 mps 723 mmHg 90%
    12:00 -2°C° 0.1 mm 8 mps 723 mmHg 88%
    13:00 -2°C° 0.1 mm 8 mps 723 mmHg 88%
    14:00 -2°C° 0.1 mm 8 mps 724 mmHg 88%
    15:00 -2°C° 0.1 mm 8 mps 724 mmHg 88%
    16:00 -2°C° 0.2 mm 8 mps 725 mmHg 88%
    17:00 -2°C° 0.2 mm 8 mps 725 mmHg 87%
    18:00 -2°C° 0.2 mm 8 mps 726 mmHg 87%
    19:00 -3°C° 0.1 mm 7 mps 726 mmHg 88%
    20:00 -3°C° 0.1 mm 6 mps 727 mmHg 89%
    21:00 -2°C° 0.1 mm 5 mps 728 mmHg 90%
    22:00 -2°C° 0 mm 5 mps 729 mmHg 91%
    23:00 -3°C° 0 mm 4 mps 729 mmHg 91%
    Show more